Lid_Strength_Index
10 10 10 10 10 9 9 9 8 8 8 8 8 8 9 8 8 8 8 8 9 9 9 9 9 8 9 9 9 9 10 10 12 13 12 12 12 12 12 12 13 13 13
11 11 11 11 11 11 11 10 10 9 8 8 8 8 8 9 7 8 9 9 9 10 9 9 10 9 9 9 9 10 10 10 11 13 14 14 14 14 13 13 14 15 15
11 12 12 12 12 13 13 12 12 11 10 9 9 9 9 8 8 7 9 10 9 10 10 10 10 11 11 10 10 10 10 10 11 13 14 14 15 14 15 15 14 14 15
13 13 14 14 14 14 14 14 14 13 11 11 10 10 9 9 8 7 8 9 9 9 10 10 10 10 12 11 10 10 10 12 12 13 14 14 14 14 13 14 15 14 14
15 16 17 16 16 16 16 16 15 14 13 11 11 11 10 9 8 8 8 8 9 10 10 10 10 11 11 10 10 10 10 12 13 13 14 13 13 14 14 13 14 14 14
18 19 19 18 18 18 17 17 16 15 14 13 12 11 11 10 8 7 8 8 9 10 11 10 10 10 10 10 10 9 9 11 12 13 13 13 13 13 13 13 13 14 15
20 20 20 19 20 19 19 18 17 16 14 14 13 12 12 10 8 7 8 8 8 9 10 10 10 10 10 10 10 9 9 9 9 11 13 13 13 13 13 13 13 14 14
20 20 20 21 21 20 20 19 18 15 15 14 13 12 12 10 8 7 7 8 8 8 9 10 10 10 10 10 11 11 11 11 11 12 12 12 12 12 12 13 13 13 13
21 20 20 21 22 21 21 19 17 16 15 14 13 13 12 11 9 8 7 8 8 8 9 9 10 10 10 8 10 11 12 12 10 10 11 11 11 11 11 12 14 14 15
21 20 20 21 21 21 19 18 17 16 15 14 14 13 13 12 11 9 8 8 8 9 8 8 10 10 10 9 10 11 11 12 12 12 12 12 12 12 12 12 12 14 14
20 20 20 20 20 19 18 17 17 16 16 15 14 14 13 13 12 9 9 9 9 9 9 9 9 9 10 9 9 10 10 11 11 12 12 12 12 12 13 13 13 12 13
20 20 20 20 19 18 18 18 17 17 16 16 16 15 14 13 12 11 9 9 9 10 10 10 9 9 9 9 9 9 8 10 11 11 12 13 13 13 13 13 14 14 14
22 22 21 20 19 19 18 18 17 17 17 17 16 16 15 14 13 11 9 9 10 10 10 10 9 9 9 9 9 9 10 10 10 11 12 13 13 13 13 13 14 14 15
22 21 20 20 20 19 18 18 17 17 17 16 17 17 16 15 14 11 10 10 10 10 10 10 10 10 10 10 9 9 10 10 10 10 11 13 13 13 13 13 14 14 14
22 21 20 19 20 19 19 19 18 17 16 16 16 16 16 17 15 11 10 11 11 11 11 11 11 11 10 10 10 10 9 9 10 10 11 12 13 13 13 13 13 13 14
22 20 20 20 19 19 20 19 18 17 16 15 14 15 15 14 13 12 11 11 11 11 12 13 13 12 11 11 11 11 10 10 10 10 11 11 12 13 13 13 13 14 14
23 22 20 21 20 20 20 20 20 18 17 17 16 15 14 14 14 14 12 12 14 14 16 16 15 13 12 11 11 11 11 10 10 10 10 11 12 12 13 14 14 14 14
25 25 22 20 20 20 20 20 21 21 21 19 17 16 16 15 15 15 15 15 18 17 17 17 16 15 13 13 11 10 10 9 10 10 10 11 11 12 13 13 14 14 14
23 21 21 21 21 21 21 20 21 21 21 20 19 18 17 16 16 16 17 20 20 20 19 18 17 16 15 14 13 12 11 10 10 10 10 11 11 11 12 12 13 15 14
25 26 25 22 21 21 21 21 21 21 22 21 21 20 19 17 19 19 20 20 21 20 20 19 19 18 17 16 15 14 12 11 10 9 10 10 10 11 11 12 13 14 13
22 22 25 23 22 22 22 22 22 22 22 22 21 20 17 19 20 20 21 21 21 21 21 20 19 19 18 17 16 15 14 12 11 11 9 10 11 11 11 12 12 13 13
23 23 23 23 23 23 23 22 23 23 23 23 22 21 19 21 20 20 20 20 20 21 21 21 20 19 19 18 17 16 16 14 13 12 11 10 10 11 11 12 12 13 13
24 23 23 23 23 25 24 23 23 23 23 22 22 22 22 21 21 21 21 20 20 21 20 21 21 21 20 19 18 17 17 16 15 13 12 10 10 10 11 12 13 13 13
24 23 23 23 23 23 23 23 23 24 24 23 22 22 22 22 21 21 21 20 21 21 21 21 22 22 21 20 18 17 16 16 15 15 13 12 10 10 10 11 12 13 13
25 25 25 24 24 23 23 24 24 23 23 23 22 22 22 21 21 21 20 20 21 22 21 21 21 21 20 21 20 19 18 17 17 16 15 13 10 10 10 11 12 13 14
26 26 26 25 25 24 24 24 24 23 23 23 22 22 22 22 22 21 21 21 21 21 21 20 20 20 20 19 18 18 18 16 16 15 15 14 12 9 10 11 11 13 14